Home > Weather > Ilulissat > Past weeks

Flag for Greenland Past Weather in Ilulissat, Greenland — Yesterday and Last 2 Weeks

Now
45 °F

Drizzle. Mostly cloudy.


Feels Like: 41 °F
Forecast: 42 / 45 °F
Wind: 7 mph from South

Location: Jacobshavn Lufthavn

Current Time: Aug 27, 2016 at 4:45:48 AM

Latest Report: Aug 27, 2016 at 3:50 AM


Visibility: N/A

Pressure: 30.07 "Hg

Humidity: 93%

Dew Point: 43 °F

Location of IlulissatLocation

Past Weather in Ilulissat — Graph

°F

Ilulissat Temperature Yesterday

Maximum temperature yesterday: 46 °F (at 1:50 PM)
Minimum temperature yesterday: 39 °F (at 4:50 AM)
Average temperature yesterday: 44 °F

High & Low Weather Summary for the Past Weeks

 TemperatureHumidityPressure
High55 °F (Aug 25, 2:50 AM)100% (Aug 12, 3:50 AM)30.09 "Hg (Aug 12, 3:50 AM)
Low30 °F (Aug 17, 4:50 AM)37% (Aug 13, 9:50 AM)29.53 "Hg (Aug 14, 11:50 PM)
Average43 °F72%29.82 "Hg
* Reported Aug 12 2:50 AM — Aug 27 2:50 AM, Ilulissat, Weather by CustomWeather, © 2016

Note: Actual official high and low records may vary slightly from our data, if they occured in-between our weather recording intervals... More about our weather records

Advertising

Ilulissat Weather History for the Previous 24 Hours

Scroll right to see more
 ConditionsComfort  
Time TempWeatherWind HumidityBarometerVisibility
2:50 AM
Sat, Aug 27
45 °FDrizzle. Mostly cloudy.5 mph93%30.04 "HgN/A
1:50 AM45 °FLight rain. Overcast.2 mph93%30.04 "HgN/A
12:50 AM43 °FDrizzle. Overcast.2 mph100%30.04 "Hg4 mi
11:50 PM
Fri, Aug 26
43 °FDrizzle. Overcast.No wind93%30.04 "Hg4 mi
10:50 PM41 °FLight rain. Overcast.No wind93%30.04 "Hg3 mi
9:50 PM43 °FSprinkles. Cloudy.1 mph87%30.04 "HgN/A
8:50 PM43 °FDrizzle. Cloudy.No wind87%30.04 "HgN/A
7:50 PM43 °FPartly sunny.3 mph81%30.04 "HgN/A
6:50 PM46 °FPartly sunny.2 mph71%30.01 "HgN/A
5:50 PM45 °FPartly sunny.1 mph76%30.01 "HgN/A
4:50 PM45 °FPartly sunny.3 mph76%29.98 "HgN/A
3:50 PM46 °FPartly sunny.3 mph71%29.98 "HgN/A
2:50 PM45 °FPartly sunny.6 mph76%29.98 "HgN/A
1:50 PM46 °FBroken clouds.5 mph71%29.98 "HgN/A
12:50 PM43 °FPartly sunny.6 mph76%29.98 "HgN/A
11:50 AM45 °FPartly sunny.5 mph71%29.98 "HgN/A
10:50 AM43 °FScattered clouds.3 mph71%29.95 "HgN/A
9:50 AM45 °FPartly sunny.5 mph76%29.95 "HgN/A
8:50 AM45 °FPartly sunny.2 mph76%29.95 "HgN/A
7:50 AM45 °FPartly sunny.3 mph76%29.95 "HgN/A
6:50 AM43 °FOvercast.No wind81%29.95 "HgN/A
5:50 AM43 °FOvercast.No wind76%29.95 "HgN/A
4:50 AM39 °FOvercast.No wind87%29.92 "HgN/A
Weather by CustomWeather, © 2016

See weather overviewHow to use our weather pages